Volver al catálogo

ATLAS CENTAUR R/B

ActivoGTO
NORAD 9329·ROCKET BODY·🇺🇸 United States

Lanzado Jul 22, 1976 desde Cape Canaveral Space Force Station

Loading…

TLE

ObsoletoSource: Space-Track

Época: Sep 13, 2026, 13:12 UTC

1  9329U 76073B   26256.55062487  .00000006  00000-0  17703-2 0  9990
2  9329  21.3231 143.2991 7177238  57.8570 352.2612  2.23836224278665

Sigue ATLAS CENTAUR R/B en tiempo real con AllMySat

Download on the App Store